Location: Coffee Ditch
(40.9640°N, 122.7500°W)
Time: 06:39:25
(UTC+00:00)

Cosmos 1535 Rocket - Pass Details

Date: 08 September 2024
Orbit: 947 x 1004 km, 83.0° (Epoch: 05 October)

Event Time Altitude Azimuth Distance (km) Brightness Sun altitude
Rises 12:46:55 0° 351° (N) 3,710 7.7 -11.6°
Reaches altitude 10° 12:49:27 10° 351° (N) 2,750 7.0 -11.1°
Maximum altitude 12:55:46 82° 265° (W) 988 4.5 -10.0°
Drops below altitude 10° 13:01:56 10° 178° (S) 2,693 6.7 -8.9°
Sets 13:04:24 0° 178° (S) 3,628 7.4 -8.4°
